Location: Schommer Observatory
(40.5200°N, 74.4500°W)
Time: 17:34:48
(UTC-05:00)

Envisat - Pass Details

Date: 08 October 2017
Orbit: 764 x 766 km, 98.2° (Epoch: 18 December)

Event Time Altitude Azimuth Distance (km) Brightness Sun altitude
Exits shadow 22:21:39 11° 282° (WNW) 2,229 5.9 -43.1°
Drops below altitude 10° 22:22:26 10° 291° (WNW) 2,307 6.0 -43.2°
Sets 22:26:33 0° 324° (NW) 3,241 7.0 -43.9°
